Location: Unspecified
(0.0000°N, 0.0000°E)
Time: 09:48:49
(UTC+00:00)

N. Korean satellite - Pass Details

Date: 28 January 2021
Orbit: 451 x 503 km, 97.2° (Epoch: 27 February)

Event Time Altitude Azimuth Distance (km) Brightness Sun altitude
Rises 05:09:15 0° 6° (N) 2,441 10.0 -15.1°
Reaches altitude 10° 05:11:16 10° 3° (N) 1,572 9.0 -14.6°
Maximum altitude 05:14:37 66° 281° (W) 496 6.3 -13.8°
Drops below altitude 10° 05:17:59 10° 198° (SSW) 1,588 9.2 -13.0°
Sets 05:20:02 0° 195° (SSW) 2,468 10.2 -12.6°
